Lyndonville, VT

11:36 PM EDT on June 22, 2017 (GMT -0400)
Lyndonville

Weather History for KCDA - December, 2013

Change the Weather History Date:

Tuesday, December 24, 2013

  Actual Average (K1V4) Record (K1V4)
Temperature  
Mean Temperature 16 °F -  
Max Temperature 28 °F 27 °F 60 °F (2015)
Min Temperature 4 °F 11 °F -28 °F (1943)
Degree Days  
Heating Degree Days 48    
Moisture  
Dew Point 8 °F    
Average Humidity 70    
Maximum Humidity 79    
Minimum Humidity 61    
Precipitation  
Precipitation 0.00 in - - ()
Sea Level Pressure  
Sea Level Pressure 30.13 in    
Wind  
Wind Speed 7 mph (WNW)    
Max Wind Speed 13 mph    
Max Gust Speed 18 mph    
Visibility 9 miles    
Events Snow    
Averages and records for this station are not official NWS values.
T = Trace of Precipitation, MM = Missing Value Source: NWS Daily Summary

Daily Weather History Graph

Daily Weather History Graph

Search for Another Location

Airport or City:

Trip Planner

Search our weather history database for the weather conditions in past years. The results will help you decide how hot, cold, wet, or windy it might be!

Date:

Astronomy

Dec. 24, 2013 Rise Set
Actual Time 7:23 AM EST 4:12 PM EST
Civil Twilight 6:49 AM EST 4:46 PM EST
Nautical Twilight 6:12 AM EST 5:23 PM EST
Astronomical Twilight 5:37 AM EST 5:58 PM EST
Moon 11:34 PM EST (12/24) 11:00 AM EST (12/24)
Length of Visible Light 9h 56m
Length of Day
8h 49m
Waning Gibbous, 59% of the Moon is Illuminated
Dec 24
Waning Gibbous
Dec 25
Last Quarter
Jan 1
New
Jan 7
First Quarter
Jan 15
Full

Hourly Weather History & Observations

Time (EST) Temp. Windchill Dew Point Humidity Pressure Visibility Wind Dir Wind Speed Gust Speed Precip Events Conditions
12:15 AM 28.4 °F 23.3 °F 18.7 °F 67% 30.11 in 10.0 mi West 4.6 mph - N/A   Overcast
12:35 AM 27.7 °F 18.2 °F 18.1 °F 67% 30.09 in 10.0 mi West 10.4 mph 17.3 mph N/A   Overcast
12:55 AM 27.1 °F 16.9 °F 18.1 °F 69% 30.10 in 10.0 mi West 11.5 mph 18.4 mph N/A   Overcast
1:15 AM 26.6 °F 18.2 °F 19.0 °F 73% 30.10 in 10.0 mi WNW 8.1 mph - N/A Snow Light Snow
1:35 AM 25.5 °F 16.2 °F 18.7 °F 75% 30.10 in 10.0 mi WNW 9.2 mph - N/A Snow Light Snow
1:55 AM 24.8 °F 16.9 °F 19.0 °F 79% 30.11 in 7.0 mi NW 6.9 mph - N/A Snow Light Snow
2:15 AM 23.9 °F 18.0 °F 18.3 °F 79% 30.12 in 7.0 mi WNW 4.6 mph - N/A Snow Light Snow
2:35 AM 23.4 °F 16.2 °F 17.6 °F 79% 30.13 in 7.0 mi WNW 5.8 mph - N/A Snow Light Snow
2:55 AM 22.6 °F 15.3 °F 16.9 °F 79% 30.13 in 7.0 mi NW 5.8 mph - N/A Snow Light Snow
3:15 AM 22.1 °F 12.8 °F 16.3 °F 79% 30.12 in 5.0 mi WNW 8.1 mph - N/A Snow Light Snow
3:35 AM 21.6 °F 10.6 °F 15.4 °F 77% 30.13 in 10.0 mi WNW 10.4 mph - N/A Snow Light Snow
3:55 AM 20.7 °F 11.0 °F 14.2 °F 76% 30.13 in 10.0 mi WNW 8.1 mph - N/A   Scattered Clouds
4:15 AM 20.3 °F 11.5 °F 14.0 °F 77% 30.12 in 10.0 mi West 6.9 mph - N/A   Scattered Clouds
4:35 AM 19.9 °F 14.9 °F 13.8 °F 77% 30.13 in 10.0 mi WNW 3.5 mph - N/A Snow Light Snow
4:55 AM 20.1 °F 12.3 °F 13.6 °F 76% 30.13 in 10.0 mi WNW 5.8 mph - N/A   Overcast
5:15 AM 20.3 °F 9.0 °F 13.5 °F 75% 30.12 in 10.0 mi WNW 10.4 mph - N/A   Overcast
5:35 AM 20.1 °F 11.3 °F 13.1 °F 74% 30.13 in 10.0 mi West 6.9 mph - N/A Snow Light Snow
5:55 AM 19.6 °F 8.1 °F 12.2 °F 73% 30.13 in 10.0 mi WNW 10.4 mph 17.3 mph N/A   Overcast
6:15 AM 19.2 °F 7.7 °F 11.7 °F 72% 30.14 in 10.0 mi West 10.4 mph 18.4 mph N/A   Overcast
6:35 AM 18.5 °F 11.7 °F 11.3 °F 73% 30.15 in 10.0 mi West 4.6 mph - N/A Snow Light Snow
6:55 AM 18.0 °F 11.1 °F 11.1 °F 75% 30.15 in 7.0 mi WNW 4.6 mph - N/A Snow Light Snow
7:15 AM 18.0 °F 11.1 °F 10.9 °F 74% 30.14 in 7.0 mi NNW 4.6 mph - N/A Snow Light Snow
7:35 AM 18.0 °F - 11.3 °F 75% 30.13 in 10.0 mi Calm Calm - N/A Snow Light Snow
7:55 AM 17.1 °F - 10.9 °F 77% 30.13 in 7.0 mi Calm Calm - N/A Snow Light Snow
8:15 AM 16.7 °F 9.6 °F 10.6 °F 77% 30.13 in 5.0 mi North 4.6 mph - N/A Snow Light Snow
8:35 AM 17.2 °F 7.8 °F 10.4 °F 75% 30.12 in 4.0 mi North 6.9 mph - N/A Snow Light Snow
8:55 AM 17.6 °F 5.7 °F 10.0 °F 72% 30.12 in 5.0 mi NNW 10.4 mph - N/A Snow Light Snow
9:15 AM 17.8 °F 8.5 °F 9.7 °F 71% 30.12 in 7.0 mi North 6.9 mph - N/A Snow Light Snow
9:35 AM 17.2 °F 7.8 °F 9.5 °F 72% 30.13 in 5.0 mi NNW 6.9 mph - N/A Snow Light Snow
9:55 AM 17.1 °F 3.6 °F 8.4 °F 69% 30.13 in 7.0 mi NW 12.7 mph - N/A   Overcast
10:15 AM 17.6 °F 7.3 °F 8.2 °F 67% 30.13 in 5.0 mi NW 8.1 mph - N/A Snow Light Snow
10:35 AM 17.8 °F 7.5 °F 8.4 °F 67% 30.13 in 5.0 mi NNW 8.1 mph - N/A Snow Light Snow
10:55 AM 18.3 °F 7.3 °F 8.6 °F 66% 30.11 in 5.0 mi WNW 9.2 mph - N/A Snow Light Snow
11:15 AM 18.0 °F 7.7 °F 8.4 °F 66% 30.10 in 7.0 mi NW 8.1 mph - N/A Snow Light Snow
11:35 AM 18.3 °F 10.2 °F 8.4 °F 65% 30.09 in 7.0 mi NW 5.8 mph - N/A Snow Light Snow
11:55 AM 18.5 °F 10.4 °F 8.1 °F 64% 30.09 in 10.0 mi NNW 5.8 mph - N/A   Scattered Clouds
12:15 PM 18.3 °F 10.2 °F 7.7 °F 63% 30.08 in 10.0 mi NNW 5.8 mph - N/A Snow Light Snow
12:35 PM 18.0 °F 12.7 °F 7.9 °F 65% 30.08 in 10.0 mi NNE 3.5 mph - N/A   Scattered Clouds
12:55 PM 18.0 °F 12.7 °F 8.2 °F 66% 30.07 in 10.0 mi North 3.5 mph - N/A   Mostly Cloudy
1:15 PM 19.8 °F 10.8 °F 8.4 °F 61% 30.07 in 10.0 mi NW 6.9 mph - N/A   Mostly Cloudy
1:35 PM 19.0 °F 10.0 °F 8.1 °F 62% 30.06 in 10.0 mi NW 6.9 mph - N/A   Mostly Cloudy
1:55 PM 19.0 °F 9.0 °F 8.2 °F 63% 30.06 in 10.0 mi NW 8.1 mph - N/A   Mostly Cloudy
2:15 PM 18.5 °F 6.8 °F 7.9 °F 63% 30.06 in 10.0 mi NW 10.4 mph - N/A   Scattered Clouds
2:35 PM 18.1 °F 10.0 °F 7.5 °F 63% 30.06 in 10.0 mi NW 5.8 mph - N/A   Scattered Clouds
2:55 PM 18.3 °F 9.1 °F 7.3 °F 62% 30.07 in 10.0 mi NW 6.9 mph - N/A   Scattered Clouds
3:15 PM 17.2 °F 8.9 °F 7.0 °F 64% 30.07 in 10.0 mi NW 5.8 mph - N/A   Scattered Clouds
3:35 PM 16.2 °F 4.7 °F 6.6 °F 66% 30.07 in 10.0 mi North 9.2 mph - N/A   Mostly Cloudy
3:55 PM 14.0 °F 3.9 °F 5.4 °F 69% 30.09 in 10.0 mi North 6.9 mph - N/A   Scattered Clouds
4:15 PM 13.3 °F 3.0 °F 5.0 °F 70% 30.10 in 10.0 mi NNW 6.9 mph - N/A Snow Light Snow
4:35 PM 12.4 °F 0.9 °F 4.3 °F 70% 30.11 in 7.0 mi SW 8.1 mph - N/A Snow Light Snow
4:55 PM 11.1 °F 1.7 °F 3.6 °F 72% 30.11 in 10.0 mi SW 5.8 mph - N/A Snow Light Snow
5:15 PM 10.2 °F -0.6 °F 3.0 °F 73% 30.11 in 10.0 mi SW 6.9 mph - N/A   Clear
5:35 PM 9.5 °F 1.2 °F 2.3 °F 73% 30.12 in 10.0 mi SW 4.6 mph - N/A   Clear
5:55 PM 9.1 °F -1.9 °F 2.5 °F 74% 30.12 in 10.0 mi SW 6.9 mph - N/A   Clear
6:15 PM 8.6 °F 0.1 °F 1.9 °F 74% 30.13 in 10.0 mi SW 4.6 mph - N/A   Clear
6:35 PM 7.7 °F 1.0 °F 1.0 °F 74% 30.14 in 10.0 mi SW 3.5 mph - N/A   Clear
6:55 PM 7.5 °F -1.1 °F 0.5 °F 73% 30.15 in 10.0 mi SW 4.6 mph - N/A   Clear
7:15 PM 8.1 °F -0.5 °F 0.5 °F 71% 30.15 in 10.0 mi SW 4.6 mph - N/A   Clear
7:35 PM 7.3 °F -1.3 °F -0.4 °F 71% 30.16 in 10.0 mi SW 4.6 mph - N/A   Clear
7:55 PM 6.6 °F -6.1 °F -1.3 °F 70% 30.16 in 10.0 mi SW 8.1 mph - N/A   Clear
8:15 PM 6.6 °F -3.7 °F -2.2 °F 67% 30.17 in 10.0 mi SW 5.8 mph - N/A   Clear
8:35 PM 6.1 °F -4.3 °F -2.6 °F 68% 30.18 in 10.0 mi SW 5.8 mph - N/A   Scattered Clouds
8:55 PM 5.9 °F -5.8 °F -3.3 °F 66% 30.18 in 10.0 mi SW 6.9 mph - N/A   Overcast
9:15 PM 5.7 °F -7.2 °F -3.8 °F 65% 30.19 in 10.0 mi SW 8.1 mph - N/A   Overcast
9:35 PM 5.7 °F -4.8 °F -3.1 °F 67% 30.19 in 10.0 mi SW 5.8 mph - N/A   Overcast
9:55 PM 5.5 °F -7.4 °F -2.6 °F 69% 30.19 in 10.0 mi SW 8.1 mph - N/A   Overcast
10:15 PM 5.4 °F -7.6 °F -3.1 °F 68% 30.20 in 10.0 mi SW 8.1 mph - N/A   Overcast
10:35 PM 5.4 °F -11.1 °F -3.5 °F 67% 30.20 in 10.0 mi SW 12.7 mph 17.3 mph N/A   Overcast
10:55 PM 5.0 °F -8.1 °F -3.6 °F 68% 30.20 in 10.0 mi SW 8.1 mph - N/A   Overcast
11:15 PM 5.0 °F -2.1 °F -3.1 °F 69% 30.20 in 10.0 mi SW 3.5 mph - N/A   Overcast
11:35 PM 5.0 °F -8.1 °F -2.4 °F 72% 30.20 in 10.0 mi SW 8.1 mph - N/A   Overcast
11:55 PM 4.6 °F -9.5 °F -3.5 °F 69% 30.21 in 10.0 mi SW 9.2 mph - N/A   Overcast